EW3163 Weather Reports


Display with metric or nautical units.
time (UTC)temp
F
wind
direction
speed
MPH
gust
MPH
rain 1hr
in
rain 24hr
in
rain mn
in
humidity
%
barometer
mb
20260905183037 61 350 0.0 0.0 0.00 0.00 0.00 70 1022.3
20260905181538 62 349 0.0 0.0 0.00 0.00 0.00 68 1022.0
20260905180038 62 85 0.0 0.0 0.00 0.00 0.00 66 1022.2
20260905174537 63 5 0.0 0.0 0.00 0.00 0.00 64 1022.4
20260905173037 63 1 0.0 0.0 0.00 0.00 0.00 63 1021.9
20260905171541 64 319 0.0 1.0 0.00 0.00 0.00 61 1021.8
20260905170032 65 31 0.0 2.0 0.00 0.00 0.00 60 1021.6
20260905164532 65 345 0.0 1.0 0.00 0.00 0.00 61 1021.5
20260905163027 65 333 0.0 3.0 0.00 0.00 0.00 58 1021.4
20260905161536 65 89 0.0 0.0 0.00 0.00 0.00 61 1021.3
20260905160036 65 6 0.0 1.0 0.00 0.00 0.00 61 1021.5
20260905154545 65 58 0.0 3.0 0.00 0.00 0.00 61 1021.3
20260905153027 65 358 0.0 3.0 0.00 0.00 0.00 59 1021.3
20260905151524 65 308 0.0 4.0 0.00 0.00 0.00 61 1021.4
20260905150025 65 31 0.0 3.0 0.00 0.00 0.00 60 1021.3
20260905144534 65 314 0.0 4.0 0.00 0.00 0.00 59 1021.1
20260905143020 66 323 0.0 3.0 0.00 0.00 0.00 61 1021.0
20260905141523 66 346 0.0 2.0 0.00 0.00 0.00 59 1020.9
20260905140021 66 314 0.0 2.0 0.00 0.00 0.00 59 1020.7
20260905134518 65 318 0.0 4.0 0.00 0.00 0.00 60 1020.7
20260905133016 67 321 0.0 4.0 0.00 0.00 0.00 57 1020.6
20260905131514 64 311 0.0 5.0 0.00 0.00 0.00 61 1020.6
20260905130016 65 33 0.0 3.0 0.00 0.00 0.00 60 1020.5
20260905124512 65 60 0.0 9.0 0.00 0.00 0.00 60 1020.3
20260905123010 64 323 0.0 3.0 0.00 0.00 0.00 62 1020.4
20260905121508 64 321 0.0 3.0 0.00 0.00 0.00 61 1020.1
20260905120007 65 318 1.0 6.0 0.00 0.00 0.00 59 1020.1
20260905114506 66 330 0.0 7.0 0.00 0.00 0.00 58 1020.0
20260905113007 66 25 0.0 4.0 0.00 0.00 0.00 58 1019.8
20260905111502 65 27 0.0 7.0 0.00 0.00 0.00 58 1019.7
20260905104558 63 298 1.0 5.0 0.00 0.00 0.00 61 1019.5
20260905103056 64 25 0.0 6.0 0.00 0.00 0.00 60 1019.4
20260905101552 64 298 0.0 6.0 0.00 0.00 0.00 63 1019.2
20260905100051 63 321 0.0 4.0 0.00 0.00 0.00 64 1019.1
20260905094559 62 319 0.0 6.0 0.00 0.00 0.00 64 1018.8
20260905093044 61 346 0.0 4.0 0.00 0.00 0.00 67 1018.7
20260905091545 60 316 0.0 5.0 0.00 0.00 0.00 68 1018.5
20260905090036 60 350 0.0 4.0 0.00 0.00 0.00 69 1018.3
20260905084540 59 49 0.0 5.0 0.00 0.00 0.00 70 1017.9
20260905083030 59 311 0.0 5.0 0.00 0.00 0.00 71 1017.7
20260905081527 58 55 0.0 3.0 0.00 0.00 0.00 74 1017.5
20260905080035 57 273 0.0 3.0 0.00 0.00 0.00 75 1017.5
20260905074522 57 18 0.0 4.0 0.00 0.00 0.00 77 1017.2
20260905073035 56 123 0.0 1.0 0.00 0.00 0.00 79 1017.2
20260905071518 0 0.0 0.0 0.00 0.00 0.00 1017.2
20260905070014 0 0.0 0.0 0.00 0.00 0.00 1017.0
20260905064512 0 0.0 0.0 0.00 0.00 0.00 1016.5
20260905063005 0 0.0 0.0 0.00 0.00 0.00 1016.3
20260905061613 0 0.0 0.0 0.00 0.00 0.00 1016.2
20260905060056 0 0.0 0.0 0.00 0.00 0.00 1016.0
20260905054552 0 0.0 0.0 0.00 0.00 0.00 1015.8
20260905053052 0 0.0 0.0 0.00 0.00 0.00 1015.7
20260905051546 54 315 0.0 3.0 0.00 0.00 0.00 80 1015.5
20260905050042 54 11 0.0 1.0 0.00 0.00 0.00 81 1015.2
20260905044540 54 27 0.0 3.0 0.00 0.00 0.00 81 1015.1
20260905043105 55 49 0.0 1.0 0.00 0.00 0.00 82 1014.8
20260905041538 55 6 0.0 2.0 0.00 0.00 0.00 82 1014.9
20260905040046 55 1 0.0 1.0 0.00 0.00 0.00 82 1014.6
20260905034534 55 98 0.0 2.0 0.00 0.00 0.00 80 1014.6
20260905033041 55 321 0.0 2.0 0.00 0.00 0.00 80 1014.4
20260905031530 55 349 0.0 1.0 0.00 0.00 0.00 80 1014.1
20260905030027 55 14 0.0 3.0 0.00 0.00 0.00 81 1014.1
20260905024527 55 13 0.0 2.0 0.00 0.00 0.00 81 1013.9
20260905023025 55 2 0.0 0.0 0.00 0.00 0.00 81 1013.7
20260905021526 55 26 0.0 1.0 0.00 0.00 0.00 81 1013.7
20260905020021 56 338 0.0 1.0 0.00 0.00 0.00 81 1013.4
20260905014521 56 321 0.0 4.0 0.00 0.00 0.00 81 1013.6
20260905013020 56 352 0.0 1.0 0.00 0.00 0.00 80 1013.5
20260905011516 56 317 0.0 8.0 0.00 0.00 0.00 79 1013.1
20260905010019 56 68 0.0 6.0 0.00 0.00 0.00 80 1012.9
20260905004514 56 330 0.0 1.0 0.00 0.00 0.00 81 1012.8
20260905003018 56 93 0.0 1.0 0.00 0.00 0.00 82 1013.0
20260905001510 56 27 0.0 4.0 0.00 0.00 0.00 81 1012.6
20260905000018 57 63 0.0 1.0 0.00 0.00 0.00 84 1012.2
20260904234504 57 259 0.0 4.0 0.00 0.01 0.00 84 1012.1
20260904233107 57 23 0.0 2.0 0.00 0.01 0.00 82 1011.9
20260904231600 58 342 0.0 2.0 0.00 0.01 0.00 81 1011.9
20260904230107 58 43 0.0 0.0 0.00 0.01 0.00 78 1011.9
20260904224555 58 37 0.0 1.0 0.00 0.02 0.01 77 1011.7
20260904223047 58 27 0.0 3.0 0.00 0.02 0.01 78 1011.7
20260904221542 58 85 0.0 4.0 0.00 0.02 0.01 78 1011.7
20260904220055 58 134 0.0 5.0 0.00 0.02 0.01 78 1011.6
20260904214537 58 193 0.0 1.0 0.00 0.02 0.01 79 1011.5
20260904213030 58 108 0.0 2.0 0.00 0.02 0.01 79 1011.7
20260904211531 58 8 0.0 1.0 0.00 0.02 0.01 79 1011.7
20260904210024 58 124 0.0 0.0 0.00 0.02 0.01 80 1011.5
20260904204516 58 23 0.0 0.0 0.00 0.02 0.01 80 1011.4
20260904203018 58 129 0.0 0.0 0.00 0.02 0.01 80 1011.3
20260904201507 59 122 0.0 0.0 0.00 0.02 0.01 79 1010.9
20260904200006 59 359 0.0 1.0 0.00 0.02 0.01 79 1010.7
20260904194610 59 13 0.0 2.0 0.00 0.02 0.01 79 1010.7
20260904193058 60 322 0.0 5.0 0.00 0.02 0.01 77 1010.7
20260904191553 60 235 0.0 2.0 0.00 0.02 0.01 76 1010.4
20260904190048 60 60 0.0 6.0 0.00 0.02 0.01 77 1010.2
20260904184551 61 83 0.0 3.0 0.00 0.02 0.01 76 1009.8